[[{"header":{"parameterUnit":"m.s-1","parameterCategory":1,"la1":30.2991,"la2":30.254,"lo1":-89.0895,"lo2":-89.0444,"dy":0.0017,"dx":0.0017,"nx":28,"ny":28,"refTime":"2024-09-01T03:00:00:Z","depth":0,"parameterNumber":2,"parameterNumberName":"U-component_of_WINDS"},"data":[0,0,0,0,0,0,0,0,0,0,0,0,0,0,0,0,0,0,0,0,0,0,0,0,0,0,0,0,0,0,0,0,0,0,0,0,0,0,0,0,0,0,0,0,0,0,0,0,0,0,0,0,0,0,0,0,0,0,1.3596,1.3596,0,1.3639,1.364,1.364,1.3626,1.3625,1.3624,1.3623,1.367,1.3672,1.3674,0,0,0,0,0,0,0,0,0,0,0,0,0,1.3499,1.3501,1.3595,1.3596,1.3597,1.3639,1.364,1.3641,1.3626,1.3625,1.3624,1.3623,1.3669,1.3672,1.3675,0,0,0,0,0,0,0,0,0,0,0,0,0,1.3542,1.3502,1.3595,1.3595,1.3595,1.3639,1.364,1.3641,1.3626,1.3625,1.3624,1.3622,1.3669,1.3672,1.3675,1.3723,0,0,1.3685,1.3686,0,0,0,0,0,0,0,0,1.354,1.3546,1.3594,1.3595,1.3595,1.3626,1.3623,1.3668,1.3627,1.3615,1.3623,1.3622,1.3657,1.3661,1.3672,1.3726,1.3728,1.3685,1.3687,1.3688,1.3689,0,0,0,0,0,0,0,1.3537,1.3544,1.3613,1.3595,1.3595,1.3592,1.3596,1.3632,1.3643,1.3615,1.3615,1.362,1.3657,1.3669,1.3673,1.3728,1.3685,1.3688,1.369,1.3691,1.382,1.3822,0,0,0,0,0,0,1.3533,1.3541,1.3612,1.3614,1.3563,1.3595,1.36,1.3617,1.3643,1.3645,1.3621,1.3619,1.3664,1.3669,1.3675,1.373,1.3688,1.3691,1.3693,1.3819,1.382,1.3822,0,0,0,0,0,0,1.3531,1.354,1.361,1.3578,1.3586,1.3598,1.3618,1.3619,1.3631,1.3647,1.3649,1.3632,1.3663,1.367,1.371,1.3732,1.3693,1.3696,1.3817,1.3819,1.3821,1.3844,0,0,0,0,0,0,1.3529,1.3539,1.3558,1.3578,1.3588,1.3645,1.3619,1.3621,1.3637,1.3634,1.3657,1.366,1.3663,1.3706,1.3714,1.3736,1.3698,1.3815,1.3818,1.3821,1.3841,1.3846,1.3851,0,0,0,0,0,1.3525,1.3563,1.3559,1.3567,1.3611,1.3646,1.3652,1.3654,1.3639,1.3657,1.3666,1.3659,1.3729,1.371,1.3719,1.3742,1.3814,1.3817,1.382,1.3839,1.3845,1.3851,0,0,0,0,0,0,1.3546,1.3566,1.3561,1.3607,1.3625,1.3643,1.3667,1.3661,1.3684,1.3681,1.3684,1.3689,1.373,1.374,1.3719,1.3789,1.3769,1.3774,1.378,1.3786,1.3791,1.3787,1.3701,0,0,0,0,0,1.3556,1.3583,1.3599,1.3637,1.3646,1.3655,1.367,1.367,1.3689,1.3697,1.3709,1.3728,1.3754,1.3771,1.3796,1.3843,1.3847,1.3863,1.3868,1.3872,1.3876,1.3899,1.3906,1.3833,1.3833,1.3833,0,0,1.3577,1.3591,1.3608,1.3642,1.3656,1.3682,1.3662,1.3691,1.3711,1.3702,1.3739,1.3749,1.377,1.3813,1.3833,1.3823,1.3897,1.3877,1.388,1.3882,1.3903,1.391,1.3916,1.3836,1.3835,1.3835,0,0,1.3628,1.3642,1.3674,1.3688,1.3709,1.3714,1.3722,1.3741,1.3747,1.3785,1.3777,1.3801,1.3846,1.386,1.3874,1.3928,1.3921,1.3936,1.3962,1.3984,1.399,1.3995,1.4011,1.4018,1.3941,1.3941,1.3941,0,1.3651,1.3691,1.3692,1.3721,1.3736,1.3728,1.376,1.3773,1.3802,1.3811,1.38,1.3855,1.3869,1.3913,1.3926,1.3938,1.3946,1.3933,1.3989,1.3994,1.3998,1.4014,1.4021,1.3942,1.3942,1.3942,1.3942,0,1.3717,1.3744,1.3768,1.3793,1.3811,1.3842,1.3847,1.3865,1.3863,1.3869,1.3906,1.3923,1.3949,1.396,1.396,1.4004,1.3997,1.3988,1.3967,1.4007,1.4022,1.4028,1.3944,1.3944,1.3943,1.3943,0,0,1.3782,1.3806,1.3815,1.3825,1.3847,1.3868,1.3898,1.3923,1.3936,1.3956,1.398,1.4017,1.4007,1.4022,1.4024,1.4043,1.4082,1.4031,1.4031,1.4037,1.4129,1.4134,1.4141,1.4078,1.4079,1.408,1.4126,0,1.3832,1.3884,1.3885,1.3932,1.3956,1.3948,1.3974,1.3989,1.3996,1.4017,1.4025,1.405,1.4037,1.4045,1.4064,1.4073,1.41,1.407,1.4099,1.41,1.4091,1.4149,1.4156,1.4198,1.4132,1.4133,1.4134,0,1.3898,1.3917,1.3966,1.3982,1.3992,1.4015,1.4037,1.4058,1.4075,1.4078,1.4094,1.4091,1.4121,1.4101,1.414,1.412,1.4132,1.4138,1.414,1.4141,1.4118,1.415,1.4212,1.4218,1.4144,1.4143,1.4142,0,1.3937,1.3976,1.4009,1.4019,1.4039,1.4055,1.4064,1.4079,1.4093,1.4113,1.4122,1.4145,1.4157,1.4174,1.4178,1.4163,1.4217,1.4198,1.4219,1.4219,1.4229,1.4228,1.4292,1.4241,1.4241,1.4241,1.424,0,1.3992,1.4021,1.4027,1.4047,1.4079,1.4081,1.4113,1.4121,1.4134,1.4156,1.4151,1.4171,1.4176,1.4197,1.42,1.423,1.4237,1.4239,1.4239,1.4238,1.4238,1.4245,1.4241,1.4242,1.4242,1.4242,1.4241,0,1.404,1.4045,1.408,1.4096,1.41,1.4123,1.4136,1.4155,1.4161,1.4188,1.4194,1.4203,1.4227,1.4232,1.4262,1.4263,1.4299,1.4298,1.4293,1.4292,1.4312,1.4309,1.4381,1.4389,1.4335,1.4335,1.4336,0,1.4073,1.4095,1.4113,1.4126,1.4135,1.4158,1.4171,1.4174,1.4188,1.4208,1.4224,1.4248,1.4266,1.4305,1.4313,1.4335,1.4333,1.4356,1.4336,1.4333,1.433,1.4327,1.4329,1.436,1.436,1.4361,1.4361,0,1.4131,1.4132,1.4152,1.4172,1.4188,1.4205,1.422,1.4232,1.4236,1.4252,1.4276,1.429,1.4319,1.4341,1.4362,1.4371,1.4366,1.4367,1.4373,1.4371,1.4366,1.4367,1.4301,1.4365,1.4365,1.4365,1.4364,1.4364,1.4171,1.4189,1.4204,1.4225,1.4237,1.4251,1.4269,1.4276,1.4296,1.4318,1.4319,1.4344,1.4359,1.4386,1.4397,1.4416,1.4409,1.4418,1.442,1.4421,1.4421,1.4365,1.4421,1.442,1.442,1.442,1.442,0,1.4226,1.4235,1.4255,1.4276,1.4292,1.4286,1.4302,1.4316,1.4338,1.4353,1.437,1.4396,1.4418,1.4428,1.4449,1.4462,1.446,1.4467,1.4465,1.4467,1.4428,1.442,1.4468,1.4468,1.4468,1.4468,1.4468,1.4468,1.4257,1.4287,1.4289,1.4324,1.4332,1.4356,1.4366,1.4378,1.4389,1.4418,1.4435,1.4442,1.4454,1.4475,1.4494,1.4496,1.4503,1.4511,1.4512,1.4475,1.447,1.4465,1.4457,1.4513,1.4513,1.4549,1.4549,1.4549]},{"header":{"parameterUnit":"m.s-1","parameterCategory":1,"la1":30.2991,"la2":30.254,"lo1":-89.0895,"lo2":-89.0444,"dy":0.0017,"dx":0.0017,"nx":28,"ny":28,"refTime":"2024-09-01T03:00:00:Z","depth":0,"parameterNumber":3,"parameterNumberName":"V-component_of_WINDS"},"data":[0,0,0,0,0,0,0,0,0,0,0,0,0,0,0,0,0,0,0,0,0,0,0,0,0,0,0,0,0,0,0,0,0,0,0,0,0,0,0,0,0,0,0,0,0,0,0,0,0,0,0,0,0,0,0,0,0,0,1.3413,1.3413,0,1.3401,1.3401,1.3401,1.3368,1.3367,1.3367,1.3366,1.3353,1.3353,1.3353,0,0,0,0,0,0,0,0,0,0,0,0,0,1.3407,1.3407,1.3413,1.3413,1.3413,1.3401,1.3401,1.3401,1.3368,1.3367,1.3366,1.3366,1.3353,1.3353,1.3353,0,0,0,0,0,0,0,0,0,0,0,0,0,1.3404,1.3407,1.3413,1.3395,1.3393,1.3401,1.3401,1.3401,1.3368,1.3367,1.3366,1.3365,1.3353,1.3353,1.3354,1.3378,0,0,1.3355,1.3355,0,0,0,0,0,0,0,0,1.3404,1.3404,1.3398,1.3396,1.3395,1.3385,1.3394,1.3393,1.3369,1.3378,1.3366,1.3365,1.3364,1.3364,1.3364,1.3377,1.3376,1.3355,1.3355,1.3355,1.3356,0,0,0,0,0,0,0,1.3404,1.3404,1.3408,1.3398,1.3396,1.3387,1.3386,1.3394,1.3377,1.3377,1.3375,1.3374,1.3363,1.3363,1.3363,1.3376,1.3355,1.3355,1.3356,1.3356,1.3406,1.3407,0,0,0,0,0,0,1.3407,1.3405,1.3409,1.3408,1.3397,1.3388,1.3386,1.3389,1.3377,1.3374,1.3375,1.3372,1.3363,1.3363,1.3363,1.3388,1.3355,1.3356,1.3356,1.3405,1.3406,1.3407,0,0,0,0,0,0,1.3407,1.3408,1.3409,1.3406,1.3405,1.339,1.3393,1.3389,1.339,1.3375,1.3372,1.3378,1.3362,1.3362,1.3374,1.3387,1.3356,1.3357,1.3404,1.3405,1.3407,1.344,0,0,0,0,0,0,1.3407,1.3408,1.3417,1.3406,1.3406,1.3421,1.3394,1.339,1.3391,1.3387,1.3377,1.3375,1.3361,1.3373,1.3374,1.3387,1.3357,1.3402,1.3404,1.3406,1.3437,1.3442,1.3446,0,0,0,0,0,1.3407,1.3427,1.3418,1.3418,1.3417,1.3422,1.3421,1.3406,1.3392,1.34,1.3391,1.3375,1.3386,1.3375,1.3375,1.3389,1.3401,1.3404,1.3406,1.3435,1.3441,1.3446,0,0,0,0,0,0,1.344,1.3425,1.3415,1.3432,1.3428,1.3416,1.3426,1.3413,1.3413,1.341,1.3391,1.3389,1.3402,1.3397,1.3385,1.341,1.3391,1.3394,1.3413,1.3418,1.3423,1.3423,1.3357,0,0,0,0,0,1.345,1.3455,1.3442,1.3459,1.3457,1.3442,1.3444,1.3432,1.3428,1.3426,1.3417,1.3413,1.3415,1.3417,1.3418,1.3437,1.3433,1.3447,1.3451,1.3455,1.3457,1.3464,1.3469,1.3415,1.3415,1.3415,0,0,1.3469,1.3462,1.3466,1.3465,1.3461,1.3466,1.3441,1.3448,1.3452,1.3427,1.3436,1.343,1.3424,1.3439,1.3445,1.3435,1.3471,1.3458,1.3461,1.3461,1.3467,1.3472,1.3477,1.3417,1.3416,1.3416,0,0,1.3506,1.3502,1.3514,1.351,1.3504,1.3494,1.3497,1.3487,1.3482,1.3491,1.3472,1.3476,1.3481,1.3477,1.3475,1.3511,1.3495,1.3512,1.3535,1.3542,1.3546,1.355,1.356,1.3564,1.3514,1.3514,1.3514,0,1.353,1.3538,1.3522,1.353,1.3529,1.3508,1.3519,1.3516,1.3511,1.351,1.35,1.3504,1.3499,1.3511,1.3519,1.352,1.3521,1.3512,1.3547,1.3551,1.3554,1.3563,1.3567,1.3516,1.3516,1.3516,1.3515,0,1.3567,1.3573,1.3583,1.3578,1.3579,1.3589,1.3574,1.3577,1.3565,1.3556,1.3566,1.3559,1.3557,1.356,1.3549,1.357,1.3564,1.3551,1.353,1.3561,1.3569,1.3573,1.3519,1.3518,1.3517,1.3517,0,0,1.3623,1.3609,1.3613,1.361,1.3601,1.3605,1.3614,1.3612,1.3614,1.3612,1.3617,1.3621,1.3609,1.3607,1.3596,1.3603,1.3628,1.3588,1.3587,1.3594,1.3649,1.3657,1.3662,1.3619,1.362,1.362,1.3648,0,1.3656,1.3669,1.3656,1.3672,1.3675,1.3655,1.3662,1.3657,1.3649,1.3651,1.3642,1.3645,1.3629,1.3627,1.3634,1.3624,1.3639,1.3622,1.3622,1.3622,1.3622,1.3666,1.3675,1.3702,1.3652,1.3652,1.3653,0,1.3696,1.3694,1.3711,1.37,1.3701,1.3708,1.3704,1.3707,1.3701,1.3695,1.3693,1.3679,1.3686,1.3668,1.3676,1.3665,1.3665,1.366,1.366,1.3658,1.3638,1.3663,1.3711,1.3714,1.3658,1.3658,1.3658,0,1.3732,1.3734,1.3744,1.3742,1.373,1.3735,1.3731,1.3724,1.3723,1.3721,1.372,1.3719,1.3718,1.3717,1.3703,1.3692,1.3712,1.3693,1.3705,1.3705,1.3708,1.3708,1.3755,1.3712,1.3712,1.3712,1.3712,0,1.3768,1.3778,1.3759,1.3765,1.3775,1.376,1.377,1.3764,1.3757,1.3761,1.3744,1.3747,1.373,1.3731,1.3721,1.3727,1.3728,1.3722,1.3718,1.3722,1.3722,1.3719,1.3716,1.3713,1.3713,1.3713,1.3713,0,1.3809,1.3797,1.3806,1.3794,1.3792,1.38,1.3789,1.3794,1.3785,1.3789,1.3789,1.3775,1.3776,1.3762,1.3761,1.3753,1.3764,1.3759,1.3766,1.3763,1.3775,1.3773,1.3819,1.3824,1.3781,1.3782,1.3782,0,1.3832,1.3839,1.3828,1.3829,1.3825,1.3828,1.3827,1.3812,1.3812,1.3806,1.381,1.381,1.3808,1.381,1.3799,1.3797,1.379,1.3806,1.3789,1.3792,1.3787,1.3786,1.3786,1.3809,1.381,1.381,1.3811,0,1.3873,1.3866,1.3867,1.3864,1.3864,1.3862,1.3858,1.386,1.3844,1.3845,1.3845,1.3844,1.3842,1.3841,1.3837,1.3831,1.3818,1.3816,1.3818,1.3821,1.3824,1.382,1.3773,1.3815,1.3814,1.3814,1.3814,1.3814,1.3903,1.3908,1.3901,1.3901,1.3897,1.3894,1.3897,1.3889,1.3889,1.3886,1.3877,1.3879,1.3872,1.3865,1.3861,1.3861,1.3853,1.3857,1.3857,1.3858,1.3859,1.3826,1.3861,1.3861,1.3861,1.3861,1.386,0,1.3941,1.3936,1.3936,1.3932,1.3932,1.392,1.3916,1.3916,1.3918,1.3913,1.3911,1.3911,1.391,1.3899,1.3897,1.3899,1.3893,1.3899,1.3897,1.3896,1.3868,1.3865,1.3904,1.3904,1.3904,1.3904,1.3904,1.3904,1.3961,1.3967,1.396,1.3964,1.3959,1.396,1.3958,1.3955,1.3951,1.3951,1.395,1.3944,1.3936,1.3932,1.393,1.3927,1.3926,1.3934,1.3928,1.3902,1.3898,1.3894,1.3891,1.3934,1.3934,1.3956,1.3956,1.3956]}]]